Regional Weather Roundup
Issued by NWS Nashville, TN

Home | Current Version | Previous Version | Text Only | Print | Product List | Glossary On
Versions: 1 2 3 4 5 6 7 8 9 10 11 12 13 14 15 16 17 18 19 20 21 22 23 24 25 26 27 28 29 30 31 32 33 34 35 36 37 38 39 40 41 42 43 44 45 46 47 48 49 50
000
ASUS44 KOHX 051710
RWROHX
MIDDLE TENNESSEE HOURLY WEATHER ROUNDUP
NATIONAL WEATHER SERVICE NASHVILLE TN
1200 PM CDT SUN JUL 05 2015

NOTE: "FAIR" INDICATES FEW OR NO CLOUDS BELOW 12,000 FEET WITH
NO SIGNIFICANT WEATHER AND/OR OBSTRUCTIONS TO VISIBILITY.

* THESE REPORTS ARE NOT UNDER NWS QUALITY CONTROL AND MAY NOT
  REPORT WEATHER SUCH AS PRECIPITATION AND FOG.


TNZ005>011-023>034-057-059-062>066-078-080-051800
...NORTHERN MIDDLE TENNESSEE...

CITY           SKY/WX    TMP DP  RH WIND       PRES   REMARKS
CLARKSVILLE    MOSUNNY   82  67  60 CALM      30.08R
CROSSVILLE     PTSUNNY   74  66  76 N8        30.12S
GALLATIN         N/A     75  32  20 CALM      30.10R
DICKSON        MOSUNNY   79  66  65 CALM      30.09S
LIVINGSTON     PTSUNNY   77  66  68 N3        30.09
NASHVILLE      CLOUDY    75  71  87 CALM      30.09F
PORTLAND         N/A    N/A N/A N/A W5        30.08R
ROCKWOOD       CLOUDY    68  67  96 NW7       30.12R
SMYRNA         PTSUNNY   79  70  74 W7        30.09F
SPARTA         PTSUNNY   79  72  78 VRB5      30.08S
$$
TNZ056-058-060-061-075>077-079-093>097-051800
...SOUTHERN MIDDLE TENNESSEE...

CITY           SKY/WX    TMP DP  RH WIND       PRES   REMARKS
COLUMBIA       MOSUNNY   81  72  74 VRB3      30.09S
MCMINNVILLE    MOSUNNY   77  70  78 W7        30.11S
SHELBYVILLE    PTSUNNY   81  72  74 SW6         N/A
TULLAHOMA      PTSUNNY   77  68  73 W9        30.13S
WINCHESTER     PTSUNNY   75  70  83 SW7       30.13F
$$


...KEY TO REMARKS...
VSB - VISIBILITY IN MILES
WCI - WIND CHILL INDEX
HX  - HEAT INDEX



USA.gov is the U.S. government's official web portal to all federal, state and local government web resources and services.